Hourly Weather Novyj Bug

Today, 15 July, Wednesday

Time Temperature Precipitation Wind Pressure Humidity
00:00 +14°C° 0 mm 3 mps 751 mmHg 77%
01:00 +13°C° 0 mm 3 mps 751 mmHg 79%
02:00 +13°C° 0 mm 3 mps 751 mmHg 81%
03:00 +13°C° 0 mm 3 mps 751 mmHg 82%
04:00 +13°C° 0 mm 3 mps 751 mmHg 83%
05:00 +13°C° 0 mm 3 mps 752 mmHg 83%
06:00 +16°C° 0 mm 3 mps 752 mmHg 75%
07:00 +18°C° 0 mm 4 mps 752 mmHg 67%
08:00 +20°C° 0 mm 4 mps 752 mmHg 59%
09:00 +22°C° 0 mm 4 mps 752 mmHg 53%
10:00 +23°C° 0 mm 4 mps 752 mmHg 48%
11:00 +25°C° 0 mm 4 mps 752 mmHg 42%
12:00 +25°C° 0 mm 4 mps 752 mmHg 40%
13:00 +26°C° 0 mm 4 mps 752 mmHg 39%
14:00 +26°C° 0 mm 4 mps 752 mmHg 37%
15:00 +26°C° 0 mm 4 mps 752 mmHg 38%
16:00 +26°C° 0 mm 4 mps 751 mmHg 39%
17:00 +26°C° 0 mm 4 mps 751 mmHg 40%
18:00 +24°C° 0 mm 3 mps 752 mmHg 46%
19:00 +23°C° 0 mm 2 mps 752 mmHg 51%
20:00 +20°C° 0 mm 2 mps 752 mmHg 57%
21:00 +19°C° 0 mm 2 mps 752 mmHg 61%
22:00 +19°C° 0 mm 1 mps 752 mmHg 65%
23:00 +18°C° 0 mm 1 mps 752 mmHg 69%

Tomorrow, 16 July, Thursday

Time Temperature Precipitation Wind Pressure Humidity
00:00 +18°C° 0 mm 1 mps 752 mmHg 71%
01:00 +18°C° 0 mm 1 mps 752 mmHg 73%
02:00 +15°C° 0 mm 0 mps 752 mmHg 74%
03:00 +15°C° 0 mm 0 mps 752 mmHg 75%
04:00 +15°C° 0 mm 0 mps 752 mmHg 75%
05:00 +16°C° 0 mm 1 mps 752 mmHg 75%
06:00 +18°C° 0 mm 0 mps 752 mmHg 68%
07:00 +20°C° 0 mm 0 mps 752 mmHg 61%
08:00 +22°C° 0 mm 0 mps 752 mmHg 53%
09:00 +23°C° 0 mm 0 mps 752 mmHg 49%
10:00 +26°C° 0 mm 1 mps 752 mmHg 44%
11:00 +27°C° 0 mm 1 mps 752 mmHg 39%
12:00 +28°C° 0 mm 1 mps 752 mmHg 37%
13:00 +28°C° 0 mm 1 mps 751 mmHg 35%
14:00 +28°C° 0 mm 1 mps 751 mmHg 33%
15:00 +28°C° 0 mm 1 mps 751 mmHg 34%
16:00 +28°C° 0 mm 1 mps 750 mmHg 35%
17:00 +28°C° 0 mm 1 mps 750 mmHg 35%
18:00 +27°C° 0 mm 1 mps 750 mmHg 39%
19:00 +25°C° 0 mm 2 mps 750 mmHg 42%
20:00 +24°C° 0 mm 2 mps 750 mmHg 46%
21:00 +23°C° 0 mm 2 mps 750 mmHg 48%
22:00 +23°C° 0 mm 2 mps 750 mmHg 50%
23:00 +21°C° 0 mm 2 mps 750 mmHg 52%

Day after tomorrow, 17 July, Friday

Time Temperature Precipitation Wind Pressure Humidity
00:00 +20°C° 0 mm 2 mps 750 mmHg 54%
01:00 +20°C° 0 mm 2 mps 750 mmHg 56%
02:00 +19°C° 0 mm 2 mps 750 mmHg 59%
03:00 +19°C° 0 mm 2 mps 750 mmHg 61%
04:00 +19°C° 0 mm 2 mps 750 mmHg 63%
05:00 +19°C° 0 mm 2 mps 750 mmHg 66%
06:00 +21°C° 0 mm 2 mps 751 mmHg 60%
07:00 +24°C° 0 mm 2 mps 751 mmHg 55%
08:00 +26°C° 0 mm 2 mps 751 mmHg 49%
09:00 +27°C° 0 mm 3 mps 751 mmHg 45%
10:00 +28°C° 0 mm 3 mps 751 mmHg 41%
11:00 +29°C° 0 mm 3 mps 751 mmHg 37%
12:00 +29°C° 0 mm 3 mps 751 mmHg 36%
13:00 +29°C° 0 mm 3 mps 751 mmHg 36%
14:00 +29°C° 0 mm 3 mps 750 mmHg 35%
15:00 +29°C° 0 mm 3 mps 750 mmHg 36%
16:00 +29°C° 0 mm 2 mps 750 mmHg 37%
17:00 +29°C° 0 mm 2 mps 750 mmHg 38%
18:00 +28°C° 0 mm 2 mps 750 mmHg 41%
19:00 +26°C° 0 mm 2 mps 751 mmHg 45%
20:00 +25°C° 0 mm 2 mps 751 mmHg 49%
21:00 +24°C° 0 mm 3 mps 751 mmHg 52%
22:00 +22°C° 0 mm 3 mps 751 mmHg 56%
23:00 +21°C° 0 mm 3 mps 751 mmHg 59%

18 July, Saturday

Time Temperature Precipitation Wind Pressure Humidity
00:00 +20°C° 0 mm 3 mps 752 mmHg 62%
01:00 +20°C° 0 mm 3 mps 752 mmHg 65%
02:00 +20°C° 0 mm 3 mps 752 mmHg 68%
03:00 +19°C° 0 mm 3 mps 752 mmHg 70%
04:00 +19°C° 0 mm 3 mps 752 mmHg 73%
05:00 +19°C° 0 mm 3 mps 752 mmHg 75%
06:00 +21°C° 0 mm 3 mps 752 mmHg 68%
07:00 +24°C° 0 mm 3 mps 753 mmHg 61%
08:00 +26°C° 0 mm 4 mps 753 mmHg 54%
09:00 +27°C° 0 mm 4 mps 753 mmHg 49%
10:00 +29°C° 0 mm 3 mps 753 mmHg 43%
11:00 +30°C° 0 mm 3 mps 753 mmHg 38%
12:00 +30°C° 0 mm 3 mps 753 mmHg 36%
13:00 +31°C° 0 mm 3 mps 752 mmHg 35%
14:00 +31°C° 0 mm 3 mps 752 mmHg 34%
15:00 +32°C° 0 mm 4 mps 752 mmHg 36%
16:00 +30°C° 0 mm 4 mps 752 mmHg 38%
17:00 +30°C° 0 mm 4 mps 752 mmHg 40%
18:00 +28°C° 0 mm 4 mps 752 mmHg 45%
19:00 +27°C° 0 mm 4 mps 752 mmHg 50%
20:00 +25°C° 0 mm 3 mps 752 mmHg 55%
21:00 +25°C° 0 mm 3 mps 752 mmHg 56%
22:00 +24°C° 0 mm 3 mps 752 mmHg 58%
23:00 +22°C° 0 mm 3 mps 753 mmHg 60%

19 July, Sunday

Time Temperature Precipitation Wind Pressure Humidity
00:00 +22°C° 0 mm 3 mps 753 mmHg 62%
01:00 +21°C° 0 mm 3 mps 753 mmHg 63%
02:00 +21°C° 0 mm 3 mps 753 mmHg 64%
03:00 +21°C° 0 mm 3 mps 752 mmHg 65%
04:00 +21°C° 0 mm 3 mps 752 mmHg 65%
05:00 +20°C° 0 mm 3 mps 752 mmHg 65%
06:00 +22°C° 0 mm 3 mps 752 mmHg 61%
07:00 +25°C° 0 mm 3 mps 752 mmHg 58%
08:00 +27°C° 0 mm 3 mps 752 mmHg 54%
09:00 +28°C° 0 mm 3 mps 752 mmHg 50%
10:00 +29°C° 0 mm 3 mps 752 mmHg 45%
11:00 +30°C° 0 mm 3 mps 752 mmHg 40%
12:00 +30°C° 0 mm 3 mps 752 mmHg 40%
13:00 +30°C° 0 mm 2 mps 751 mmHg 40%
14:00 +30°C° 0 mm 2 mps 751 mmHg 40%
15:00 +30°C° 0 mm 2 mps 751 mmHg 40%
16:00 +30°C° 0 mm 2 mps 750 mmHg 39%
17:00 +30°C° 0 mm 2 mps 750 mmHg 39%
18:00 +29°C° 0 mm 2 mps 750 mmHg 42%
19:00 +27°C° 0 mm 2 mps 750 mmHg 45%
20:00 +26°C° 0 mm 2 mps 750 mmHg 49%
21:00 +25°C° 0 mm 2 mps 750 mmHg 50%
22:00 +25°C° 0 mm 2 mps 750 mmHg 51%
23:00 +24°C° 0 mm 3 mps 750 mmHg 51%

20 July, Monday

Time Temperature Precipitation Wind Pressure Humidity
00:00 +24°C° 0 mm 3 mps 750 mmHg 54%
01:00 +22°C° 0 mm 3 mps 750 mmHg 57%
02:00 +22°C° 0 mm 3 mps 750 mmHg 60%
03:00 +22°C° 0 mm 3 mps 750 mmHg 62%
04:00 +22°C° 0 mm 3 mps 750 mmHg 64%
05:00 +22°C° 0 mm 3 mps 749 mmHg 67%
06:00 +24°C° 0 mm 3 mps 749 mmHg 63%
07:00 +25°C° 0 mm 3 mps 749 mmHg 59%
08:00 +27°C° 0 mm 3 mps 749 mmHg 56%
09:00 +27°C° 0 mm 3 mps 749 mmHg 52%
10:00 +28°C° 0 mm 3 mps 749 mmHg 49%
11:00 +29°C° 0 mm 3 mps 748 mmHg 45%
12:00 +30°C° 0 mm 3 mps 748 mmHg 42%
13:00 +30°C° 0 mm 3 mps 748 mmHg 40%
14:00 +31°C° 0 mm 3 mps 747 mmHg 37%
15:00 +30°C° 0.1 mm 4 mps 747 mmHg 41%
16:00 +29°C° 0.1 mm 4 mps 747 mmHg 44%
17:00 +28°C° 0.1 mm 5 mps 747 mmHg 48%
18:00 +26°C° 0.6 mm 4 mps 747 mmHg 56%
19:00 +23°C° 0.6 mm 4 mps 747 mmHg 64%
20:00 +22°C° 0.6 mm 3 mps 747 mmHg 73%
21:00 +21°C° 0.3 mm 3 mps 747 mmHg 75%
22:00 +21°C° 0.3 mm 3 mps 747 mmHg 78%
23:00 +20°C° 0.3 mm 3 mps 747 mmHg 80%
Show more